Location: Ballingbuur
(53.0000°N, 5.7667°E)
Time: 20:43:14
(UTC+00:00)

FALCON 9 DEB - Visible Passes

Search period start: 13 April 2021 00:00
Search period end: 23 April 2021 00:00
Orbit: 371 x 387 km, 53.0° (Epoch: 13 April)

Date Brightness Start Highest point End Pass type
(mag) Time Alt. Az. Time Alt. Az. Time Alt. Az.
13 Apr 2.7 02:34:40 56° W 02:35:14 87° N 02:38:21 10° E visible
14 Apr 4.7 01:36:42 26° E 01:36:42 26° E 01:38:14 10° E visible
14 Apr 2.7 03:08:51 19° W 03:10:57 81° S 03:14:03 10° ESE visible
15 Apr 2.8 02:10:55 84° ENE 02:10:55 84° ENE 02:13:56 10° E visible
15 Apr 3.2 03:43:32 10° W 03:46:33 47° SSW 03:49:33 10° SE visible
16 Apr 5.4 01:13:01 16° E 01:13:01 16° E 01:13:47 10° E visible
16 Apr 2.7 02:45:10 31° W 02:46:28 69° SSW 02:49:33 10° ESE visible
17 Apr 4.0 01:47:24 37° E 01:47:24 37° E 01:49:25 10° E visible
17 Apr 3.5 03:19:33 13° W 03:21:58 36° SSW 03:24:50 10° SE visible
18 Apr 2.9 02:21:57 56° SSW 02:21:57 56° SSW 02:24:55 10° ESE visible
19 Apr 5.7 01:24:38 11° ESE 01:24:38 11° ESE 01:24:48 10° ESE visible
19 Apr 3.8 02:56:50 26° SW 02:57:15 27° SSW 02:59:55 10° SSE visible
20 Apr 5.5 01:59:59 11° SE 01:59:59 11° SE 02:00:08 10° SE visible
20 Apr 4.9 03:32:13 11° SW 03:32:22 11° SW 03:33:22 10° SSW visible
21 Apr 5.1 20:42:45 10° SSW 20:43:16 13° SSW 20:43:16 13° SSW visible
22 Apr 4.5 19:43:24 10° S 19:45:21 16° SE 19:47:02 11° ESE visible
22 Apr 4.3 21:17:40 10° WSW 21:19:16 27° SW 21:19:16 27° SW visible
